EW7835 Weather Reports


Display with metric or nautical units.
time (UTC)temp
F
wind
direction
speed
MPH
gust
MPH
rain 1hr
in
rain 24hr
in
rain mn
in
humidity
%
barometer
mb
20181216090017 31 11 1.0 4.0 0.00 0.00 0.00 88 1018.0
20181216084516 30 23 0.0 8.0 0.00 0.00 0.00 89 1017.8
20181216083049 30 9 1.0 10.0 0.00 0.00 0.00 89 1017.9
20181216081514 30 23 0.0 8.0 0.00 0.00 0.00 89 1018.1
20181216080202 30 19 0.0 9.0 0.00 0.00 0.00 89 1018.4
20181216074639 30 5 2.0 9.0 0.00 0.00 0.00 89 1018.7
20181216073158 30 13 6.0 9.0 0.00 0.00 0.00 89 1019.1
20181216071625 30 348 0.0 0.0 0.00 0.00 0.00 89 1019.4
20181216070139 30 348 0.0 0.0 0.00 0.00 0.00 89 1019.4
20181216064739 30 348 0.0 0.0 0.00 0.00 0.00 89 1019.5
20181216063242 30 347 0.0 0.0 0.00 0.00 0.00 89 1019.5
20181216061634 30 344 0.0 1.0 0.00 0.00 0.00 89 1019.7
20181216060223 30 5 0.0 5.0 0.00 0.00 0.00 89 1019.6
20181216054604 30 355 0.0 0.0 0.00 0.00 0.00 89 1019.8
20181216053130 31 348 0.0 0.0 0.00 0.00 0.00 89 1019.7
20181216051626 31 351 0.0 8.0 0.00 0.00 0.00 89 1019.9
20181216050101 31 347 3.0 9.0 0.00 0.00 0.00 89 1019.6
20181216044559 31 17 2.0 9.0 0.00 0.00 0.00 89 1020.0
20181216043112 31 11 5.0 9.0 0.00 0.00 0.00 88 1020.0
20181216041705 31 355 6.0 11.0 0.00 0.00 0.00 88 1020.4
20181216040052 32 19 8.0 12.0 0.00 0.00 0.00 87 1020.3
20181216034542 32 9 7.0 13.0 0.00 0.00 0.00 87 1020.6
20181216033058 32 16 7.0 14.0 0.00 0.00 0.00 87 1020.6
20181216031545 32 16 7.0 10.0 0.00 0.00 0.00 87 1020.7
20181216030036 33 19 4.0 9.0 0.00 0.00 0.00 86 1021.0
20181216024547 33 16 4.0 10.0 0.00 0.00 0.00 85 1021.0
20181216023026 34 41 1.0 6.0 0.00 0.00 0.00 85 1021.2
20181216021521 34 32 0.0 0.0 0.00 0.00 0.00 86 1021.3
20181216020043 34 32 0.0 0.0 0.00 0.00 0.00 88 1020.9
20181216014520 34 32 0.0 0.0 0.00 0.00 0.00 89 1020.6
20181216013036 34 32 0.0 0.0 0.00 0.00 0.00 87 1020.6
20181216011535 35 34 0.0 0.0 0.00 0.00 0.00 88 1020.2
20181216010005 35 40 0.0 0.0 0.00 0.00 0.00 87 1020.2
20181216004505 36 32 0.0 0.0 0.00 0.00 0.00 88 1020.1
20181216003002 35 11 0.0 0.0 0.00 0.00 0.00 92 1019.9
20181216001506 35 325 0.0 0.0 0.00 0.00 0.00 93 1019.9
20181216000133 36 321 0.0 0.0 0.00 0.00 0.00 91 1019.9
20181215234718 37 47 0.0 0.0 0.00 0.00 0.00 90 1019.6
20181215233241 37 47 0.0 0.0 0.00 0.00 0.00 90 1019.5
20181215231647 37 61 0.0 0.0 0.00 0.00 0.00 91 1018.9
20181215230234 37 16 0.0 0.0 0.00 0.00 0.00 90 1018.6
20181215224635 37 43 0.0 1.0 0.00 0.00 0.00 89 1019.0
20181215223225 38 52 0.0 0.0 0.00 0.00 0.00 89 1019.1
20181215221644 38 28 0.0 0.0 0.00 0.00 0.00 89 1019.1
20181215220204 38 92 0.0 0.0 0.00 0.00 0.00 90 1019.3
20181215214636 38 90 0.0 1.0 0.00 0.00 0.00 92 1019.2
20181215213115 38 144 0.0 0.0 0.00 0.00 0.00 92 1019.2
20181215211659 38 182 0.0 0.0 0.00 0.00 0.00 92 1019.3
20181215210125 39 217 0.0 0.0 0.00 0.00 0.00 92 1019.3
20181215204644 39 217 0.0 0.0 0.00 0.00 0.00 91 1019.2
20181215203058 39 217 0.0 0.0 0.00 0.00 0.00 90 1019.4
20181215201637 40 217 0.0 1.0 0.00 0.00 0.00 90 1019.3
20181215200116 40 217 0.0 2.0 0.00 0.00 0.00 89 1019.1
20181215194601 40 217 0.0 1.0 0.00 0.00 0.00 89 1019.0
20181215193212 41 217 0.0 2.0 0.00 0.00 0.00 89 1019.0
20181215191626 41 217 0.0 2.0 0.00 0.00 0.00 89 1019.1
20181215190147 41 258 0.0 2.0 0.00 0.00 0.00 88 1019.0
20181215184725 42 211 0.0 2.0 0.00 0.00 0.00 87 1019.1
20181215183124 42 293 0.0 1.0 0.00 0.00 0.00 86 1018.7
20181215181613 42 293 0.0 0.0 0.00 0.00 0.00 86 1018.8
20181215180118 42 293 0.0 0.0 0.00 0.00 0.00 86 1018.7
20181215174627 42 293 0.0 0.0 0.00 0.03 0.00 86 1018.7
20181215173115 42 293 0.0 0.0 0.00 0.03 0.00 86 1018.7
20181215171603 42 283 0.0 0.0 0.00 0.03 0.00 86 1018.7
20181215170100 42 267 0.0 0.0 0.00 0.03 0.00 86 1018.8
20181215164602 42 267 0.0 0.0 0.00 0.05 0.00 86 1018.8
20181215163038 42 268 0.0 1.0 0.00 0.05 0.00 86 1018.8
20181215161600 42 255 0.0 5.0 0.00 0.05 0.00 88 1018.8
20181215160054 42 227 1.0 5.0 0.00 0.05 0.00 87 1018.9
20181215154601 42 233 0.0 3.0 0.00 0.05 0.00 86 1019.1
20181215153102 42 224 0.0 4.0 0.00 0.05 0.00 86 1019.5
20181215151540 42 261 0.0 5.0 0.00 0.05 0.00 86 1019.6
20181215150030 42 266 0.0 1.0 0.00 0.05 0.00 87 1019.5
20181215144627 42 261 0.0 4.0 0.00 0.05 0.00 87 1019.6
20181215143040 42 261 1.0 4.0 0.00 0.05 0.00 88 1019.6
20181215141611 41 255 0.0 8.0 0.00 0.05 0.00 89 1019.6
20181215140028 40 278 1.0 9.0 0.00 0.05 0.00 91 1019.5
20181215134552 39 271 0.0 2.0 0.00 0.05 0.00 92 1019.5
20181215133012 38 298 0.0 3.0 0.00 0.05 0.00 92 1019.7
20181215131524 38 269 0.0 1.0 0.00 0.05 0.00 93 1019.9
20181215130009 38 274 0.0 1.0 0.00 0.05 0.00 93 1019.8
20181215124520 38 239 0.0 3.0 0.00 0.05 0.00 93 1019.7
20181215123034 38 317 0.0 2.0 0.00 0.05 0.00 93 1019.7
20181215121505 39 317 0.0 2.0 0.00 0.05 0.00 93 1019.7
20181215120005 38 317 0.0 1.0 0.00 0.05 0.00 93 1019.6
20181215114511 38 317 0.0 0.0 0.00 0.05 0.00 94 1019.6
20181215111712 38 325 0.0 0.0 0.00 0.05 0.00 94 1019.3
20181215110138 38 325 0.0 0.0 0.00 0.05 0.00 94 1018.9
20181215104643 38 325 0.0 1.0 0.00 0.05 0.00 95 1018.8
20181215103220 38 325 0.0 0.0 0.00 0.05 0.00 95 1018.8
20181215101622 38 325 0.0 0.0 0.00 0.05 0.00 96 1018.7
20181215100120 38 325 0.0 0.0 0.00 0.05 0.00 96 1018.5
20181215094629 38 325 0.0 0.0 0.00 0.05 0.00 97 1018.3
20181215093153 38 325 0.0 0.0 0.00 0.05 0.00 97 1017.8
20181215091706 38 325 0.0 0.0 0.00 0.05 0.00 97 1018.1